TimeEST,TemperatureF,Dew PointF,Humidity,Sea Level PressureIn,VisibilityMPH,Wind Direction,Wind SpeedMPH,Gust SpeedMPH,PrecipitationIn,Events,Conditions,WindDirDegrees,DateUTC
12:51 AM,24.1,21.0,88,30.54,10.0,Calm,Calm,-,N/A,,Clear,0,2012-11-14 05:51:00
1:51 AM,24.1,21.0,88,30.55,10.0,Calm,Calm,-,N/A,,Clear,0,2012-11-14 06:51:00
2:51 AM,24.1,21.9,91,30.56,10.0,Calm,Calm,-,N/A,,Clear,0,2012-11-14 07:51:00
3:51 AM,21.9,21.0,96,30.58,10.0,Calm,Calm,-,N/A,,Clear,0,2012-11-14 08:51:00
4:51 AM,21.0,19.9,96,30.59,10.0,Calm,Calm,-,N/A,,Clear,0,2012-11-14 09:51:00
5:51 AM,21.9,19.9,92,30.61,10.0,Calm,Calm,-,N/A,,Clear,0,2012-11-14 10:51:00
6:51 AM,19.9,18.0,92,30.64,10.0,Calm,Calm,-,N/A,,Clear,0,2012-11-14 11:51:00
7:15 AM,19.4,19.4,100,30.58,9.0,Calm,Calm,-,N/A,,Scattered Clouds,0,2012-11-14 12:15:00
7:19 AM,19.4,19.4,100,30.58,1.8,Calm,Calm,-,N/A,,Scattered Clouds,0,2012-11-14 12:19:00
7:21 AM,19.4,19.4,100,30.59,1.2,Calm,Calm,-,N/A,,Mostly Cloudy,0,2012-11-14 12:21:00
7:23 AM,19.4,19.4,100,30.59,0.8,Calm,Calm,-,N/A,,Mostly Cloudy,0,2012-11-14 12:23:00
7:51 AM,21.0,21.0,100,30.66,0.2,Calm,Calm,-,N/A,Fog,Light Freezing Fog,0,2012-11-14 12:51:00
8:27 AM,23.0,23.0,100,30.60,1.2,Calm,Calm,-,N/A,,Mostly Cloudy,0,2012-11-14 13:27:00
8:29 AM,23.0,23.0,100,30.60,2.5,Calm,Calm,-,N/A,,Mostly Cloudy,0,2012-11-14 13:29:00
8:38 AM,24.8,24.8,100,30.61,3.0,Calm,Calm,-,N/A,,Mostly Cloudy,0,2012-11-14 13:38:00
8:51 AM,25.0,25.0,100,30.67,1.8,Calm,Calm,-,N/A,,Mostly Cloudy,0,2012-11-14 13:51:00
8:57 AM,24.8,24.8,100,30.61,3.0,Calm,Calm,-,N/A,,Scattered Clouds,0,2012-11-14 13:57:00
9:51 AM,28.9,26.1,89,30.67,10.0,Calm,Calm,-,N/A,,Clear,0,2012-11-14 14:51:00
10:51 AM,33.1,23.0,66,30.65,10.0,Variable,4.6,-,N/A,,Clear,0,2012-11-14 15:51:00
11:51 AM,36.0,23.0,59,30.63,10.0,Variable,3.5,-,N/A,,Clear,0,2012-11-14 16:51:00
12:51 PM,37.4,19.4,48,30.55,10.0,North,9.2,-,N/A,,Clear,350,2012-11-14 17:51:00
1:51 PM,37.9,19.9,48,30.59,10.0,Variable,3.5,-,N/A,,Clear,0,2012-11-14 18:51:00
2:51 PM,37.9,19.9,48,30.59,10.0,NNE,3.5,-,N/A,,Clear,20,2012-11-14 19:51:00
3:51 PM,36.0,19.9,52,30.60,10.0,NE,4.6,-,N/A,,Clear,50,2012-11-14 20:51:00
4:51 PM,33.8,19.4,56,30.54,10.0,North,3.5,-,N/A,,Clear,10,2012-11-14 21:51:00
5:51 PM,30.9,21.0,67,30.62,10.0,Calm,Calm,-,N/A,,Clear,0,2012-11-14 22:51:00
6:51 PM,28.0,21.0,75,30.62,10.0,Calm,Calm,-,N/A,,Clear,0,2012-11-14 23:51:00
7:51 PM,26.1,19.9,78,30.63,10.0,Calm,Calm,-,N/A,,Clear,0,2012-11-15 00:51:00
8:51 PM,24.1,19.9,84,30.63,10.0,Calm,Calm,-,N/A,,Clear,0,2012-11-15 01:51:00
9:51 PM,26.1,19.9,78,30.61,10.0,Calm,Calm,-,N/A,,Clear,0,2012-11-15 02:51:00
10:51 PM,24.1,19.9,84,30.60,10.0,Calm,Calm,-,N/A,,Clear,0,2012-11-15 03:51:00
11:51 PM,23.0,19.9,88,30.58,10.0,Calm,Calm,-,N/A,,Clear,0,2012-11-15 04:51:00